| time (UTC) | temp F | wind direction | speed MPH | gust MPH | rain 1hr in | rain 24hr in | rain mn in | humidity % | barometer mb |
| 20260831225834 | 84 | 220 | 0.0 | 4.0 | 0.00 | 0.00 | 0.00 | 75 | 1015.7 |
| 20260831225334 | 85 | 185 | 2.0 | 3.0 | 0.00 | 0.00 | 0.00 | 74 | 1015.6 |
| 20260831224835 | 86 | 200 | 1.0 | 4.0 | 0.00 | 0.00 | 0.00 | 70 | 1015.6 |
| 20260831224334 | 86 | 186 | 0.0 | 5.0 | 0.00 | 0.00 | 0.00 | 70 | 1015.6 |
| 20260831223833 | 87 | 219 | 4.0 | 5.0 | 0.00 | 0.00 | 0.00 | 69 | 1015.7 |
| 20260831223333 | 87 | 168 | 3.0 | 5.0 | 0.00 | 0.00 | 0.00 | 68 | 1015.7 |
| 20260831222833 | 87 | 182 | 2.0 | 6.0 | 0.00 | 0.00 | 0.00 | 68 | 1015.6 |
| 20260831222333 | 87 | 202 | 3.0 | 6.0 | 0.00 | 0.00 | 0.00 | 66 | 1015.7 |
| 20260831221333 | 87 | 159 | 2.0 | 5.0 | 0.00 | 0.00 | 0.00 | 65 | 1015.7 |
| 20260831220833 | 88 | 257 | 2.0 | 6.0 | 0.00 | 0.00 | 0.00 | 65 | 1015.5 |
| 20260831220333 | 87 | 183 | 1.0 | 7.0 | 0.00 | 0.00 | 0.00 | 66 | 1015.5 |
| 20260831215832 | 87 | 198 | 3.0 | 7.0 | 0.00 | 0.00 | 0.00 | 64 | 1015.5 |
| 20260831214832 | 86 | 179 | 4.0 | 10.0 | 0.00 | 0.00 | 0.00 | 65 | 1015.3 |
| 20260831214332 | 86 | 286 | 4.0 | 10.0 | 0.00 | 0.00 | 0.00 | 64 | 1015.3 |
| 20260831213832 | 86 | 198 | 4.0 | 10.0 | 0.00 | 0.00 | 0.00 | 66 | 1015.3 |
| 20260831213331 | 87 | 186 | 2.0 | 12.0 | 0.00 | 0.00 | 0.00 | 66 | 1015.4 |
| 20260831212832 | 87 | 185 | 3.0 | 12.0 | 0.00 | 0.00 | 0.00 | 65 | 1015.4 |
| 20260831212331 | 87 | 202 | 3.0 | 10.0 | 0.00 | 0.00 | 0.00 | 65 | 1015.4 |
| 20260831211831 | 86 | 233 | 8.0 | 10.0 | 0.00 | 0.00 | 0.00 | 67 | 1015.1 |
| 20260831211331 | 86 | 183 | 5.0 | 13.0 | 0.00 | 0.00 | 0.00 | 70 | 1014.8 |
| 20260831210831 | 86 | 199 | 1.0 | 14.0 | 0.00 | 0.00 | 0.00 | 70 | 1014.9 |
| 20260831210331 | 86 | 203 | 7.0 | 15.0 | 0.00 | 0.00 | 0.00 | 72 | 1014.8 |
| 20260831205831 | 86 | 165 | 9.0 | 15.0 | 0.00 | 0.00 | 0.00 | 73 | 1014.8 |
| 20260831205330 | 86 | 186 | 6.0 | 7.0 | 0.00 | 0.00 | 0.00 | 75 | 1015.1 |
| 20260831204831 | 86 | 219 | 2.0 | 6.0 | 0.00 | 0.00 | 0.00 | 75 | 1015.8 |
| 20260831204330 | 85 | 198 | 4.0 | 5.0 | 0.00 | 0.00 | 0.00 | 75 | 1016.1 |
| 20260831203330 | 85 | 209 | 1.0 | 3.0 | 0.00 | 0.00 | 0.00 | 77 | 1016.1 |
| 20260831202329 | 84 | 217 | 0.0 | 4.0 | 0.00 | 0.00 | 0.00 | 77 | 1016.2 |
| 20260831201829 | 84 | 217 | 1.0 | 5.0 | 0.00 | 0.00 | 0.00 | 75 | 1016.2 |
| 20260831201329 | 84 | 180 | 1.0 | 5.0 | 0.00 | 0.00 | 0.00 | 74 | 1016.2 |
| 20260831200829 | 84 | 199 | 2.0 | 5.0 | 0.00 | 0.00 | 0.00 | 74 | 1016.2 |
| 20260831200329 | 84 | 198 | 2.0 | 7.0 | 0.00 | 0.00 | 0.00 | 74 | 1016.6 |
| 20260831195829 | 85 | 217 | 1.0 | 7.0 | 0.00 | 0.00 | 0.00 | 73 | 1016.6 |
| 20260831195328 | 85 | 197 | 3.0 | 7.0 | 0.00 | 0.00 | 0.00 | 73 | 1016.5 |
| 20260831194828 | 85 | 196 | 4.0 | 6.0 | 0.00 | 0.00 | 0.00 | 73 | 1016.7 |
| 20260831194328 | 85 | 190 | 1.0 | 6.0 | 0.00 | 0.00 | 0.00 | 73 | 1016.9 |
| 20260831193828 | 85 | 199 | 2.0 | 7.0 | 0.00 | 0.00 | 0.00 | 73 | 1016.9 |
| 20260831193328 | 85 | 184 | 3.0 | 7.0 | 0.00 | 0.00 | 0.00 | 75 | 1016.9 |
| 20260831192828 | 85 | 178 | 3.0 | 6.0 | 0.00 | 0.00 | 0.00 | 73 | 1017.0 |
| 20260831192327 | 85 | 196 | 4.0 | 6.0 | 0.00 | 0.00 | 0.00 | 73 | 1017.1 |
| 20260831191827 | 85 | 233 | 5.0 | 5.0 | 0.00 | 0.00 | 0.00 | 72 | 1017.4 |
| 20260831191327 | 85 | 190 | 2.0 | 7.0 | 0.00 | 0.00 | 0.00 | 72 | 1017.5 |
| 20260831190827 | 85 | 174 | 1.0 | 7.0 | 0.00 | 0.00 | 0.00 | 72 | 1017.6 |
| 20260831190328 | 86 | 293 | 2.0 | 7.0 | 0.00 | 0.00 | 0.00 | 72 | 1017.6 |
| 20260831185827 | 86 | 220 | 3.0 | 7.0 | 0.00 | 0.00 | 0.00 | 70 | 1017.6 |
| 20260831185327 | 86 | 214 | 3.0 | 7.0 | 0.00 | 0.00 | 0.00 | 73 | 1017.5 |
| 20260831184326 | 87 | 202 | 4.0 | 7.0 | 0.00 | 0.00 | 0.00 | 72 | 1017.6 |
| 20260831183326 | 85 | 199 | 4.0 | 5.0 | 0.00 | 0.00 | 0.00 | 74 | 1017.7 |
| 20260831182826 | 85 | 189 | 2.0 | 6.0 | 0.00 | 0.00 | 0.00 | 73 | 1017.7 |
| 20260831182326 | 85 | 194 | 3.0 | 6.0 | 0.00 | 0.00 | 0.00 | 73 | 1017.7 |
| 20260831181825 | 85 | 232 | 1.0 | 6.0 | 0.00 | 0.00 | 0.00 | 74 | 1017.8 |
| 20260831181325 | 85 | 196 | 3.0 | 4.0 | 0.00 | 0.00 | 0.00 | 74 | 1017.8 |
| 20260831180825 | 85 | 196 | 1.0 | 5.0 | 0.00 | 0.00 | 0.00 | 75 | 1017.9 |
| 20260831180325 | 84 | 184 | 1.0 | 5.0 | 0.00 | 0.00 | 0.00 | 76 | 1017.9 |
| 20260831175825 | 84 | 191 | 2.0 | 5.0 | 0.00 | 0.00 | 0.00 | 77 | 1018.0 |
| 20260831174825 | 84 | 225 | 0.0 | 3.0 | 0.00 | 0.00 | 0.00 | 77 | 1018.1 |
| 20260831174325 | 84 | 224 | 1.0 | 4.0 | 0.00 | 0.00 | 0.00 | 77 | 1018.0 |
| 20260831173824 | 84 | 188 | 0.0 | 4.0 | 0.00 | 0.00 | 0.00 | 77 | 1018.0 |
| 20260831173324 | 84 | 246 | 0.0 | 3.0 | 0.00 | 0.00 | 0.00 | 76 | 1018.0 |
| 20260831172824 | 84 | 190 | 1.0 | 4.0 | 0.00 | 0.00 | 0.00 | 76 | 1018.1 |
| 20260831172324 | 84 | 199 | 2.0 | 5.0 | 0.00 | 0.00 | 0.00 | 75 | 1018.2 |
| 20260831171824 | 84 | 176 | 5.0 | 5.0 | 0.00 | 0.00 | 0.00 | 77 | 1018.1 |
| 20260831171323 | 85 | 32 | 2.0 | 5.0 | 0.00 | 0.00 | 0.00 | 73 | 1018.2 |
| 20260831170823 | 85 | 319 | 4.0 | 5.0 | 0.00 | 0.00 | 0.00 | 73 | 1018.1 |
| 20260831165823 | 87 | 152 | 1.0 | 6.0 | 0.00 | 0.00 | 0.00 | 70 | 1018.1 |
| 20260831165323 | 86 | 160 | 2.0 | 7.0 | 0.00 | 0.00 | 0.00 | 71 | 1018.1 |
| 20260831164323 | 85 | 209 | 5.0 | 7.0 | 0.00 | 0.00 | 0.00 | 75 | 1018.1 |
| 20260831163322 | 85 | 215 | 6.0 | 6.0 | 0.00 | 0.00 | 0.00 | 74 | 1018.2 |
| 20260831162822 | 85 | 180 | 1.0 | 6.0 | 0.00 | 0.00 | 0.00 | 75 | 1018.2 |
| 20260831162322 | 85 | 165 | 3.0 | 7.0 | 0.00 | 0.00 | 0.00 | 74 | 1018.1 |
| 20260831161822 | 84 | 193 | 2.0 | 10.0 | 0.00 | 0.00 | 0.00 | 74 | 1018.2 |
| 20260831161322 | 85 | 213 | 2.0 | 10.0 | 0.00 | 0.00 | 0.00 | 73 | 1018.1 |
| 20260831160822 | 86 | 207 | 5.0 | 7.0 | 0.00 | 0.00 | 0.00 | 73 | 1018.3 |
| 20260831160321 | 86 | 267 | 1.0 | 9.0 | 0.00 | 0.00 | 0.00 | 75 | 1018.3 |
| 20260831155821 | 87 | 196 | 4.0 | 9.0 | 0.00 | 0.00 | 0.00 | 71 | 1018.3 |
| 20260831155321 | 86 | 177 | 3.0 | 10.0 | 0.00 | 0.00 | 0.00 | 73 | 1018.3 |
| 20260831154821 | 85 | 67 | 1.0 | 10.0 | 0.00 | 0.00 | 0.00 | 74 | 1018.2 |
| 20260831153821 | 86 | 146 | 5.0 | 7.0 | 0.00 | 0.00 | 0.00 | 73 | 1018.3 |
| 20260831153321 | 86 | 229 | 3.0 | 5.0 | 0.00 | 0.00 | 0.00 | 73 | 1018.3 |
| 20260831152820 | 85 | 203 | 1.0 | 6.0 | 0.00 | 0.00 | 0.00 | 74 | 1018.1 |
| 20260831152320 | 85 | 171 | 1.0 | 6.0 | 0.00 | 0.00 | 0.00 | 75 | 1018.3 |
| 20260831151820 | 85 | 240 | 5.0 | 8.0 | 0.00 | 0.00 | 0.00 | 74 | 1018.2 |
| 20260831151320 | 86 | 177 | 1.0 | 8.0 | 0.00 | 0.00 | 0.00 | 73 | 1018.3 |
| 20260831150820 | 85 | 183 | 3.0 | 6.0 | 0.00 | 0.00 | 0.00 | 73 | 1018.2 |
| 20260831150320 | 85 | 171 | 2.0 | 10.0 | 0.00 | 0.00 | 0.00 | 74 | 1018.2 |
| 20260831145819 | 84 | 248 | 6.0 | 10.0 | 0.00 | 0.00 | 0.00 | 74 | 1018.1 |
| 20260831145319 | 84 | 192 | 2.0 | 6.0 | 0.00 | 0.00 | 0.00 | 74 | 1018.1 |
| 20260831144819 | 84 | 205 | 4.0 | 6.0 | 0.00 | 0.00 | 0.00 | 74 | 1018.1 |
| 20260831144319 | 83 | 233 | 4.0 | 8.0 | 0.00 | 0.00 | 0.00 | 74 | 1017.9 |
| 20260831143319 | 82 | 182 | 2.0 | 5.0 | 0.00 | 0.00 | 0.00 | 76 | 1017.8 |
| 20260831142818 | 81 | 199 | 3.0 | 8.0 | 0.00 | 0.00 | 0.00 | 79 | 1017.7 |
| 20260831142348 | 80 | 199 | 2.0 | 8.0 | 0.00 | 0.00 | 0.00 | 77 | 1017.6 |
| 20260831141848 | 80 | 173 | 4.0 | 6.0 | 0.00 | 0.00 | 0.00 | 78 | 1017.6 |
| 20260831141348 | 79 | 195 | 2.0 | 6.0 | 0.00 | 0.00 | 0.00 | 79 | 1017.6 |
| 20260831140848 | 79 | 227 | 4.0 | 6.0 | 0.00 | 0.00 | 0.00 | 80 | 1017.6 |
| 20260831140347 | 78 | 190 | 2.0 | 5.0 | 0.00 | 0.00 | 0.00 | 82 | 1017.5 |
| 20260831135848 | 78 | 98 | 0.0 | 4.0 | 0.00 | 0.00 | 0.00 | 82 | 1017.7 |
| 20260831135347 | 77 | 218 | 3.0 | 4.0 | 0.00 | 0.00 | 0.00 | 83 | 1017.7 |
| 20260831134847 | 77 | 188 | 2.0 | 4.0 | 0.00 | 0.00 | 0.00 | 83 | 1017.5 |
| 20260831134347 | 76 | 250 | 3.0 | 5.0 | 0.00 | 0.00 | 0.00 | 84 | 1017.5 |
| 20260831131846 | 75 | 267 | 3.0 | 5.0 | 0.00 | 0.00 | 0.00 | 86 | 1017.6 |
| 20260831131346 | 75 | 244 | 5.0 | 5.0 | 0.00 | 0.00 | 0.00 | 86 | 1017.4 |
| 20260831130346 | 74 | 189 | 4.0 | 5.0 | 0.00 | 0.00 | 0.00 | 86 | 1017.5 |
| 20260831125846 | 74 | 197 | 1.0 | 5.0 | 0.00 | 0.00 | 0.00 | 87 | 1017.7 |
| 20260831125346 | 74 | 184 | 0.0 | 5.0 | 0.00 | 0.00 | 0.00 | 88 | 1017.6 |
| 20260831124845 | 74 | 213 | 4.0 | 4.0 | 0.00 | 0.00 | 0.00 | 87 | 1017.7 |
| 20260831123845 | 73 | 213 | 1.0 | 3.0 | 0.00 | 0.00 | 0.00 | 89 | 1017.6 |
| 20260831122845 | 73 | 213 | 2.0 | 2.0 | 0.00 | 0.00 | 0.00 | 89 | 1017.4 |
| 20260831122346 | 72 | 213 | 0.0 | 0.0 | 0.00 | 0.00 | 0.00 | 90 | 1017.3 |
| 20260831121344 | 72 | 213 | 0.0 | 2.0 | 0.00 | 0.00 | 0.00 | 91 | 1017.3 |
| 20260831120844 | 71 | 213 | 1.0 | 4.0 | 0.00 | 0.00 | 0.00 | 92 | 1017.2 |
| 20260831120344 | 71 | 213 | 1.0 | 4.0 | 0.00 | 0.00 | 0.00 | 93 | 1017.3 |
| 20260831115844 | 70 | 198 | 0.0 | 4.0 | 0.00 | 0.00 | 0.00 | 93 | 1017.3 |
| 20260831115344 | 70 | 198 | 1.0 | 3.0 | 0.00 | 0.00 | 0.00 | 94 | 1017.3 |
| 20260831114843 | 69 | 194 | 2.0 | 2.0 | 0.00 | 0.00 | 0.00 | 94 | 1017.2 |
| 20260831114344 | 69 | 151 | 0.0 | 2.0 | 0.00 | 0.00 | 0.00 | 94 | 1017.3 |
| 20260831113343 | 69 | 151 | 0.0 | 0.0 | 0.00 | 0.00 | 0.00 | 95 | 1017.2 |
| 20260831112843 | 69 | 151 | 0.0 | 0.0 | 0.00 | 0.00 | 0.00 | 94 | 1017.2 |
| 20260831111843 | 69 | 151 | 0.0 | 0.0 | 0.00 | 0.00 | 0.00 | 94 | 1017.2 |
| 20260831111342 | 69 | 151 | 0.0 | 0.0 | 0.00 | 0.00 | 0.00 | 94 | 1017.2 |
| 20260831110842 | 69 | 151 | 0.0 | 0.0 | 0.00 | 0.00 | 0.00 | 94 | 1017.1 |
| 20260831110342 | 69 | 151 | 0.0 | 0.0 | 0.00 | 0.00 | 0.00 | 94 | 1017.1 |
| 20260831105842 | 69 | 151 | 0.0 | 0.0 | 0.00 | 0.00 | 0.00 | 94 | 1017.2 |
| 20260831104842 | 69 | 151 | 0.0 | 0.0 | 0.00 | 0.00 | 0.00 | 95 | 1017.1 |
| 20260831104341 | 69 | 151 | 0.0 | 0.0 | 0.00 | 0.00 | 0.00 | 95 | 1017.1 |
| 20260831103841 | 69 | 151 | 0.0 | 0.0 | 0.00 | 0.00 | 0.00 | 95 | 1017.1 |
| 20260831103342 | 69 | 151 | 0.0 | 0.0 | 0.00 | 0.00 | 0.00 | 94 | 1016.9 |
| 20260831102341 | 69 | 151 | 0.0 | 0.0 | 0.00 | 0.00 | 0.00 | 95 | 1016.9 |
| 20260831101841 | 69 | 151 | 0.0 | 0.0 | 0.00 | 0.00 | 0.00 | 95 | 1016.9 |
| 20260831101340 | 69 | 151 | 0.0 | 0.0 | 0.00 | 0.00 | 0.00 | 95 | 1016.8 |
| 20260831100840 | 69 | 151 | 0.0 | 0.0 | 0.00 | 0.00 | 0.00 | 95 | 1016.9 |
| 20260831100340 | 69 | 151 | 0.0 | 0.0 | 0.00 | 0.00 | 0.00 | 94 | 1016.9 |
| 20260831095840 | 69 | 151 | 0.0 | 0.0 | 0.00 | 0.00 | 0.00 | 94 | 1017.0 |
| 20260831095340 | 69 | 151 | 0.0 | 0.0 | 0.00 | 0.00 | 0.00 | 94 | 1017.0 |
| 20260831094840 | 69 | 151 | 0.0 | 0.0 | 0.00 | 0.00 | 0.00 | 94 | 1016.9 |
| 20260831092839 | 69 | 151 | 0.0 | 0.0 | 0.00 | 0.00 | 0.00 | 94 | 1017.0 |
| 20260831092339 | 69 | 151 | 0.0 | 0.0 | 0.00 | 0.00 | 0.00 | 94 | 1017.1 |
| 20260831091839 | 69 | 151 | 0.0 | 0.0 | 0.00 | 0.00 | 0.00 | 94 | 1017.1 |
| 20260831091339 | 69 | 151 | 0.0 | 0.0 | 0.00 | 0.00 | 0.00 | 94 | 1017.1 |
| 20260831090839 | 69 | 151 | 0.0 | 0.0 | 0.00 | 0.00 | 0.00 | 94 | 1017.1 |
| 20260831090339 | 69 | 151 | 0.0 | 0.0 | 0.00 | 0.00 | 0.00 | 94 | 1017.3 |
| 20260831085338 | 69 | 151 | 0.0 | 0.0 | 0.00 | 0.00 | 0.00 | 94 | 1017.3 |
| 20260831084838 | 69 | 151 | 0.0 | 0.0 | 0.00 | 0.00 | 0.00 | 94 | 1017.4 |
| 20260831084338 | 69 | 151 | 0.0 | 0.0 | 0.00 | 0.00 | 0.00 | 94 | 1017.2 |
| 20260831083337 | 69 | 151 | 0.0 | 0.0 | 0.00 | 0.00 | 0.00 | 94 | 1017.2 |
| 20260831082337 | 69 | 151 | 0.0 | 0.0 | 0.00 | 0.00 | 0.00 | 94 | 1017.0 |
| 20260831081837 | 69 | 151 | 0.0 | 0.0 | 0.00 | 0.00 | 0.00 | 94 | 1016.9 |
| 20260831080837 | 69 | 151 | 0.0 | 0.0 | 0.00 | 0.00 | 0.00 | 94 | 1016.6 |
| 20260831080337 | 69 | 151 | 0.0 | 0.0 | 0.00 | 0.00 | 0.00 | 94 | 1016.6 |
| 20260831075336 | 69 | 151 | 0.0 | 0.0 | 0.00 | 0.00 | 0.00 | 94 | 1016.5 |
| 20260831074836 | 69 | 151 | 0.0 | 0.0 | 0.00 | 0.00 | 0.00 | 94 | 1016.5 |
| 20260831074336 | 69 | 151 | 0.0 | 0.0 | 0.00 | 0.00 | 0.00 | 93 | 1016.5 |
| 20260831073836 | 69 | 151 | 0.0 | 0.0 | 0.00 | 0.00 | 0.00 | 94 | 1016.5 |
| 20260831073335 | 69 | 151 | 0.0 | 0.0 | 0.00 | 0.00 | 0.00 | 93 | 1016.7 |
| 20260831072836 | 69 | 151 | 0.0 | 0.0 | 0.00 | 0.00 | 0.00 | 93 | 1016.7 |
| 20260831072335 | 69 | 151 | 0.0 | 0.0 | 0.00 | 0.00 | 0.00 | 93 | 1016.8 |
| 20260831071335 | 69 | 151 | 0.0 | 0.0 | 0.00 | 0.00 | 0.00 | 93 | 1016.8 |
| 20260831070335 | 69 | 151 | 0.0 | 0.0 | 0.00 | 0.00 | 0.00 | 93 | 1016.9 |
| 20260831065334 | 69 | 151 | 0.0 | 0.0 | 0.00 | 0.00 | 0.00 | 92 | 1017.0 |
| 20260831064835 | 69 | 151 | 0.0 | 0.0 | 0.00 | 0.00 | 0.00 | 92 | 1017.2 |
| 20260831064334 | 70 | 151 | 0.0 | 0.0 | 0.00 | 0.00 | 0.00 | 92 | 1017.1 |
| 20260831063334 | 69 | 151 | 0.0 | 0.0 | 0.00 | 0.00 | 0.00 | 92 | 1017.2 |
| 20260831062834 | 70 | 151 | 0.0 | 0.0 | 0.00 | 0.00 | 0.00 | 91 | 1017.3 |
| 20260831062334 | 70 | 151 | 0.0 | 0.0 | 0.00 | 0.00 | 0.00 | 91 | 1017.2 |
| 20260831061833 | 70 | 151 | 0.0 | 0.0 | 0.00 | 0.00 | 0.00 | 91 | 1017.2 |
| 20260831061333 | 70 | 151 | 0.0 | 0.0 | 0.00 | 0.00 | 0.00 | 91 | 1017.2 |
| 20260831060833 | 70 | 151 | 0.0 | 0.0 | 0.00 | 0.00 | 0.00 | 91 | 1017.0 |
| 20260831060333 | 70 | 151 | 0.0 | 0.0 | 0.00 | 0.00 | 0.00 | 90 | 1017.0 |
| 20260831055333 | 70 | 151 | 0.0 | 0.0 | 0.00 | 0.00 | 0.00 | 90 | 1017.4 |
| 20260831054832 | 70 | 151 | 0.0 | 1.0 | 0.00 | 0.00 | 0.00 | 90 | 1017.3 |
| 20260831054332 | 70 | 151 | 0.0 | 3.0 | 0.00 | 0.00 | 0.00 | 90 | 1017.3 |
| 20260831053832 | 70 | 151 | 0.0 | 3.0 | 0.00 | 0.00 | 0.00 | 90 | 1017.3 |
| 20260831053332 | 70 | 151 | 0.0 | 2.0 | 0.00 | 0.00 | 0.00 | 91 | 1017.3 |
| 20260831052832 | 70 | 151 | 0.0 | 0.0 | 0.00 | 0.00 | 0.00 | 91 | 1017.4 |
| 20260831052332 | 70 | 151 | 0.0 | 0.0 | 0.00 | 0.00 | 0.00 | 91 | 1017.5 |
| 20260831051832 | 70 | 151 | 0.0 | 0.0 | 0.00 | 0.00 | 0.00 | 91 | 1017.5 |
| 20260831050831 | 70 | 151 | 0.0 | 0.0 | 0.00 | 0.00 | 0.00 | 90 | 1017.7 |
| 20260831050331 | 70 | 151 | 0.0 | 0.0 | 0.00 | 0.00 | 0.00 | 90 | 1017.7 |
| 20260831045831 | 70 | 151 | 0.0 | 0.0 | 0.00 | 0.00 | 0.00 | 90 | 1017.7 |
| 20260831045331 | 71 | 151 | 0.0 | 1.0 | 0.00 | 0.00 | 0.00 | 90 | 1017.7 |
| 20260831044830 | 71 | 151 | 0.0 | 1.0 | 0.00 | 0.00 | 0.00 | 90 | 1017.6 |
| 20260831044331 | 71 | 151 | 0.0 | 1.0 | 0.00 | 0.00 | 0.00 | 90 | 1017.5 |
| 20260831043830 | 71 | 151 | 0.0 | 2.0 | 0.00 | 0.00 | 0.00 | 91 | 1017.6 |
| 20260831043330 | 70 | 151 | 1.0 | 2.0 | 0.00 | 0.00 | 0.00 | 91 | 1017.6 |
| 20260831042830 | 70 | 174 | 0.0 | 2.0 | 0.00 | 0.00 | 0.00 | 92 | 1017.5 |
| 20260831041829 | 70 | 176 | 0.0 | 2.0 | 0.00 | 0.00 | 0.00 | 92 | 1017.4 |
| 20260831041329 | 70 | 176 | 0.0 | 3.0 | 0.00 | 0.00 | 0.00 | 93 | 1017.5 |
| 20260831040829 | 70 | 176 | 1.0 | 3.0 | 0.00 | 0.00 | 0.00 | 93 | 1017.4 |
| 20260831040329 | 70 | 178 | 0.0 | 0.0 | 0.00 | 0.00 | 0.00 | 93 | 1017.4 |
| 20260831035829 | 70 | 232 | 0.0 | 0.0 | 0.00 | 0.00 | 0.00 | 93 | 1017.3 |
| 20260831034829 | 69 | 233 | 0.0 | 0.0 | 0.00 | 0.00 | 0.00 | 94 | 1017.4 |
| 20260831034329 | 69 | 233 | 0.0 | 0.0 | 0.00 | 0.00 | 0.00 | 94 | 1017.4 |
| 20260831033328 | 69 | 233 | 0.0 | 0.0 | 0.00 | 0.00 | 0.00 | 94 | 1017.6 |
| 20260831032828 | 69 | 233 | 0.0 | 0.0 | 0.00 | 0.00 | 0.00 | 93 | 1017.6 |
| 20260831032328 | 69 | 233 | 0.0 | 0.0 | 0.00 | 0.00 | 0.00 | 94 | 1017.6 |
| 20260831031828 | 69 | 232 | 0.0 | 0.0 | 0.00 | 0.00 | 0.00 | 94 | 1017.6 |
| 20260831031328 | 69 | 232 | 0.0 | 0.0 | 0.00 | 0.00 | 0.00 | 93 | 1017.7 |
| 20260831030828 | 69 | 233 | 0.0 | 0.0 | 0.00 | 0.00 | 0.00 | 93 | 1017.8 |
| 20260831025827 | 69 | 232 | 0.0 | 0.0 | 0.00 | 0.00 | 0.00 | 93 | 1017.8 |
| 20260831025327 | 69 | 232 | 0.0 | 0.0 | 0.00 | 0.00 | 0.00 | 93 | 1017.9 |
| 20260831024827 | 69 | 232 | 0.0 | 0.0 | 0.00 | 0.00 | 0.00 | 93 | 1017.8 |
| 20260831024327 | 70 | 232 | 0.0 | 0.0 | 0.00 | 0.00 | 0.00 | 93 | 1017.8 |
| 20260831023827 | 70 | 232 | 0.0 | 0.0 | 0.00 | 0.00 | 0.00 | 92 | 1017.8 |
| 20260831022826 | 70 | 232 | 0.0 | 0.0 | 0.00 | 0.00 | 0.00 | 93 | 1017.6 |
| 20260831022326 | 70 | 232 | 0.0 | 0.0 | 0.00 | 0.00 | 0.00 | 93 | 1017.6 |
| 20260831021326 | 70 | 232 | 0.0 | 0.0 | 0.00 | 0.00 | 0.00 | 92 | 1017.5 |
| 20260831020826 | 70 | 233 | 0.0 | 0.0 | 0.00 | 0.00 | 0.00 | 92 | 1017.5 |
| 20260831020325 | 70 | 232 | 0.0 | 0.0 | 0.00 | 0.00 | 0.00 | 92 | 1017.5 |
| 20260831015325 | 71 | 232 | 0.0 | 0.0 | 0.00 | 0.00 | 0.00 | 92 | 1017.4 |
| 20260831014825 | 71 | 232 | 0.0 | 0.0 | 0.00 | 0.00 | 0.00 | 92 | 1017.3 |
| 20260831013825 | 71 | 232 | 0.0 | 0.0 | 0.00 | 0.00 | 0.00 | 92 | 1017.3 |
| 20260831013325 | 71 | 232 | 0.0 | 0.0 | 0.00 | 0.00 | 0.00 | 92 | 1017.3 |
| 20260831012824 | 71 | 232 | 0.0 | 0.0 | 0.00 | 0.00 | 0.00 | 92 | 1017.4 |
| 20260831012324 | 71 | 232 | 0.0 | 0.0 | 0.00 | 0.00 | 0.00 | 91 | 1017.3 |
| 20260831011324 | 71 | 232 | 0.0 | 0.0 | 0.00 | 0.00 | 0.00 | 91 | 1017.3 |
| 20260831010824 | 71 | 232 | 0.0 | 0.0 | 0.00 | 0.00 | 0.00 | 90 | 1017.4 |
| 20260831010324 | 71 | 233 | 0.0 | 0.0 | 0.00 | 0.00 | 0.00 | 90 | 1017.3 |
| 20260831005823 | 72 | 233 | 0.0 | 0.0 | 0.00 | 0.00 | 0.00 | 90 | 1017.1 |
| 20260831005323 | 72 | 232 | 0.0 | 0.0 | 0.00 | 0.00 | 0.00 | 90 | 1017.1 |
| 20260831004323 | 72 | 233 | 0.0 | 0.0 | 0.00 | 0.00 | 0.00 | 88 | 1017.1 |
| 20260831003823 | 72 | 232 | 0.0 | 0.0 | 0.00 | 0.00 | 0.00 | 88 | 1017.1 |
| 20260831002823 | 73 | 232 | 0.0 | 0.0 | 0.00 | 0.00 | 0.00 | 88 | 1016.9 |
| 20260831002323 | 73 | 233 | 0.0 | 0.0 | 0.00 | 0.00 | 0.00 | 88 | 1016.9 |
| 20260831001822 | 73 | 233 | 0.0 | 0.0 | 0.00 | 0.00 | 0.00 | 88 | 1016.8 |
| 20260831001322 | 73 | 233 | 0.0 | 0.0 | 0.00 | 0.00 | 0.00 | 88 | 1016.8 |
| 20260831000822 | 73 | 233 | 0.0 | 0.0 | 0.00 | 0.00 | 0.00 | 87 | 1016.8 |
| 20260831000322 | 74 | 232 | 0.0 | 0.0 | 0.00 | 0.00 | 0.00 | 86 | 1016.9 |
| 20260830235822 | 74 | 233 | 0.0 | 0.0 | 0.00 | 0.00 | 0.00 | 85 | 1016.9 |
| 20260830235321 | 74 | 233 | 0.0 | 0.0 | 0.00 | 0.00 | 0.00 | 85 | 1017.0 |
| 20260830234821 | 75 | 233 | 0.0 | 0.0 | 0.00 | 0.00 | 0.00 | 84 | 1017.1 |
| 20260830233821 | 75 | 233 | 0.0 | 1.0 | 0.00 | 0.00 | 0.00 | 84 | 1017.1 |
| 20260830233321 | 76 | 233 | 1.0 | 1.0 | 0.00 | 0.00 | 0.00 | 83 | 1017.1 |
| 20260830232821 | 76 | 233 | 0.0 | 0.0 | 0.00 | 0.00 | 0.00 | 83 | 1017.1 |
| 20260830231320 | 78 | 233 | 0.0 | 1.0 | 0.00 | 0.00 | 0.00 | 82 | 1017.0 |
| 20260830230350 | 79 | 233 | 1.0 | 1.0 | 0.00 | 0.00 | 0.00 | 79 | 1016.9 |